Bellaire, MI

3:55 PM EDT on April 29, 2017 (GMT -0400)
Antrim County

Weather History for KACB - September, 2013

Change the Weather History Date:

Monday, September 9, 2013

  Actual Average (KCVX) Record (KCVX)
Temperature  
Mean Temperature 67 °F -  
Max Temperature 76 °F 67 °F 89 °F (2002)
Min Temperature 58 °F 54 °F 48 °F (2006)
Cooling Degree Days 2    
Growing Degree Days 17 (Base 50)    
Moisture  
Dew Point 59 °F    
Average Humidity 76    
Maximum Humidity 87    
Minimum Humidity 67    
Precipitation  
Precipitation 0.00 in - - ()
Sea Level Pressure  
Sea Level Pressure 29.92 in    
Wind  
Wind Speed 4 mph (South)    
Max Wind Speed 8 mph    
Max Gust Speed -    
Visibility 10 miles    
Events      
Averages and records for this station are not official NWS values.
T = Trace of Precipitation, MM = Missing Value Source: NWS Daily Summary

Daily Weather History Graph

Daily Weather History Graph

Search for Another Location

Airport or City:

Trip Planner

Search our weather history database for the weather conditions in past years. The results will help you decide how hot, cold, wet, or windy it might be!

Date:

Astronomy

Sep. 09, 2013 Rise Set
Actual Time 7:12 AM EDT 8:02 PM EDT
Civil Twilight 6:42 AM EDT 8:32 PM EDT
Nautical Twilight 6:07 AM EDT 9:07 PM EDT
Astronomical Twilight 5:30 AM EDT 9:44 PM EDT
Moon 11:47 AM EDT (9/9) 10:04 PM EDT (9/9)
Length of Visible Light 13h 49m
Length of Day
12h 49m
Waxing Crescent, 19% of the Moon is Illuminated
Sep 9
Waxing Crescent
Sep 12
First Quarter
Sep 19
Full
Sep 26
Last Quarter
Oct 4
New

Hourly Weather History & Observations

Time (EDT) Temp. Dew Point Humidity Pressure Visibility Wind Dir Wind Speed Gust Speed Precip Events Conditions
12:12 AM 59.2 °F 52.0 °F 77% 30.05 in 10.0 mi South 4.6 mph - N/A   Clear
12:33 AM 59.0 °F 52.2 °F 78% 30.05 in 10.0 mi South 3.5 mph - N/A   Clear
12:53 AM 58.8 °F 52.2 °F 79% 30.05 in 10.0 mi Calm Calm - N/A   Clear
1:12 AM 58.3 °F 50.9 °F 76% 30.05 in 10.0 mi Calm Calm - N/A   Clear
1:33 AM 59.0 °F 50.9 °F 74% 30.05 in 10.0 mi SSW 3.5 mph - N/A   Clear
1:53 AM 59.0 °F 50.9 °F 74% 30.05 in 10.0 mi South 3.5 mph - N/A   Clear
2:12 AM 58.8 °F 51.1 °F 75% 30.04 in 10.0 mi South 4.6 mph - N/A   Clear
2:33 AM 58.6 °F 51.1 °F 76% 30.03 in 10.0 mi South 4.6 mph - N/A   Clear
2:53 AM 58.6 °F 51.1 °F 76% 30.03 in 10.0 mi South 4.6 mph - N/A   Clear
3:12 AM 58.6 °F 51.3 °F 76% 30.03 in 10.0 mi SSW 5.8 mph - N/A   Clear
3:33 AM 58.6 °F 51.3 °F 76% 30.03 in 10.0 mi South 4.6 mph - N/A   Clear
3:53 AM 58.5 °F 51.3 °F 77% 30.03 in 10.0 mi South 5.8 mph - N/A   Clear
4:12 AM 58.6 °F 51.1 °F 76% 30.02 in 10.0 mi South 3.5 mph - N/A   Clear
4:33 AM 59.0 °F 50.9 °F 74% 30.02 in 10.0 mi South 4.6 mph - N/A   Scattered Clouds
4:53 AM 59.0 °F 50.7 °F 74% 30.02 in 10.0 mi South 3.5 mph - N/A   Overcast
5:12 AM 59.2 °F 50.5 °F 73% 30.02 in 10.0 mi South 3.5 mph - N/A   Overcast
5:33 AM 59.4 °F 50.0 °F 71% 30.01 in 10.0 mi South 4.6 mph - N/A   Overcast
5:53 AM 59.4 °F 49.5 °F 70% 30.01 in 10.0 mi South 6.9 mph - N/A   Scattered Clouds
6:13 AM 59.2 °F 49.5 °F 70% 30.00 in 10.0 mi South 3.5 mph - N/A   Mostly Cloudy
6:33 AM 59.2 °F 49.6 °F 71% 29.99 in 10.0 mi South 4.6 mph - N/A   Overcast
6:53 AM 59.2 °F 50.0 °F 72% 30.00 in 10.0 mi South 3.5 mph - N/A   Overcast
7:13 AM 59.5 °F 50.5 °F 72% 30.00 in 10.0 mi South 4.6 mph - N/A   Overcast
7:33 AM 59.9 °F 50.5 °F 71% 30.00 in 10.0 mi South 4.6 mph - N/A   Overcast
7:52 AM 60.3 °F 51.1 °F 72% 29.99 in 10.0 mi South 5.8 mph - N/A   Overcast
8:13 AM 61.0 °F 51.8 °F 72% 29.98 in 10.0 mi South 4.6 mph - N/A   Overcast
8:33 AM 61.9 °F 52.7 °F 72% 29.98 in 10.0 mi South 3.5 mph - N/A   Overcast
8:52 AM 62.2 °F 53.2 °F 72% 29.99 in 10.0 mi South 6.9 mph - N/A   Overcast
9:13 AM 62.6 °F 53.6 °F 72% 29.99 in 10.0 mi South 4.6 mph - N/A   Overcast
9:33 AM 62.6 °F 53.6 °F 72% 29.99 in 10.0 mi South 4.6 mph - N/A   Overcast
9:53 AM 62.6 °F 53.8 °F 73% 29.98 in 10.0 mi South 4.6 mph - N/A   Overcast
10:13 AM 63.0 °F 54.3 °F 73% 29.98 in 10.0 mi South 5.8 mph - N/A   Overcast
10:33 AM 63.9 °F 54.9 °F 72% 29.97 in 10.0 mi South 4.6 mph - N/A   Overcast
10:53 AM 64.6 °F 55.4 °F 72% 29.97 in 10.0 mi South 3.5 mph - N/A   Overcast
11:13 AM 65.3 °F 55.8 °F 71% 29.96 in 10.0 mi South 4.6 mph - N/A   Overcast
11:33 AM 65.3 °F 56.5 °F 73% 29.96 in 10.0 mi SSW 3.5 mph - N/A   Overcast
11:53 AM 65.5 °F 56.8 °F 74% 29.97 in 10.0 mi South 3.5 mph - N/A   Overcast
12:13 PM 66.7 °F 58.1 °F 74% 29.96 in 10.0 mi South 4.6 mph - N/A   Overcast
12:33 PM 68.4 °F 59.2 °F 72% 29.96 in 10.0 mi South 5.8 mph - N/A   Overcast
12:53 PM 68.9 °F 60.3 °F 74% 29.95 in 10.0 mi Calm Calm - N/A   Overcast
1:13 PM 68.9 °F 60.8 °F 75% 29.96 in 10.0 mi SSW 5.8 mph - N/A   Overcast
1:33 PM 68.5 °F 61.2 °F 77% 29.95 in 10.0 mi South 3.5 mph - N/A   Overcast
1:53 PM 68.9 °F 61.7 °F 78% 29.94 in 10.0 mi SW 4.6 mph - N/A   Overcast
2:13 PM 70.0 °F 61.9 °F 75% 29.93 in 10.0 mi SSW 3.5 mph - N/A   Overcast
2:33 PM 70.9 °F 62.6 °F 75% 29.90 in 10.0 mi SSE 5.8 mph - N/A   Overcast
2:53 PM 71.6 °F 63.3 °F 75% 29.90 in 10.0 mi South 4.6 mph - N/A   Overcast
3:13 PM 73.4 °F 64.2 °F 73% 29.87 in 10.0 mi South 8.1 mph - N/A   Mostly Cloudy
3:33 PM 75.6 °F 64.8 °F 69% 29.86 in 10.0 mi South 6.9 mph - N/A   Scattered Clouds
3:53 PM 76.5 °F 64.9 °F 67% 29.84 in 10.0 mi South 6.9 mph - N/A   Clear
4:13 PM 76.1 °F 64.9 °F 68% 29.85 in 10.0 mi South 6.9 mph - N/A   Clear
4:33 PM 76.5 °F 65.8 °F 70% 29.84 in 10.0 mi South 5.8 mph - N/A   Clear
4:53 PM 76.1 °F 66.2 °F 71% 29.85 in 10.0 mi SSW 3.5 mph - N/A   Clear
5:13 PM 76.3 °F 66.4 °F 71% 29.85 in 10.0 mi SSE 5.8 mph - N/A   Scattered Clouds
5:33 PM 75.6 °F 66.6 °F 74% 29.83 in 10.0 mi SSE 5.8 mph - N/A   Clear
5:53 PM 75.6 °F 66.6 °F 74% 29.82 in 10.0 mi SSE 5.8 mph - N/A   Clear
6:13 PM 75.2 °F 66.7 °F 75% 29.81 in 10.0 mi South 8.1 mph - N/A   Clear
6:33 PM 74.8 °F 67.1 °F 77% 29.81 in 10.0 mi South 5.8 mph - N/A   Clear
6:53 PM 74.7 °F 67.5 °F 78% 29.80 in 10.0 mi South 4.6 mph - N/A   Clear
7:13 PM 74.5 °F 67.6 °F 79% 29.80 in 10.0 mi South 3.5 mph - N/A   Clear
7:33 PM 74.5 °F 68.0 °F 80% 29.79 in 10.0 mi South 8.1 mph - N/A   Clear
7:53 PM 74.7 °F 68.0 °F 80% 29.79 in 10.0 mi South 6.9 mph - N/A   Clear
8:13 PM 74.3 °F 68.0 °F 81% 29.78 in 10.0 mi SSE 6.9 mph - N/A   Clear
8:33 PM 74.3 °F 68.0 °F 81% 29.78 in 10.0 mi South 4.6 mph - N/A   Clear
8:53 PM 74.1 °F 68.0 °F 81% 29.78 in 10.0 mi South 4.6 mph - N/A   Clear
9:13 PM 73.8 °F 68.2 °F 83% 29.78 in 10.0 mi South 5.8 mph - N/A   Clear
9:33 PM 73.6 °F 68.2 °F 83% 29.78 in 10.0 mi South 4.6 mph - N/A   Clear
9:53 PM 73.6 °F 68.5 °F 84% 29.78 in 10.0 mi South 4.6 mph - N/A   Clear
10:14 PM 73.8 °F 68.5 °F 84% 29.77 in 10.0 mi South 3.5 mph - N/A   Clear
10:33 PM 73.2 °F 68.9 °F 86% 29.76 in 10.0 mi South 5.8 mph - N/A   Clear
10:53 PM 73.4 °F 68.9 °F 86% 29.76 in 10.0 mi South 3.5 mph - N/A   Clear
11:14 PM 72.9 °F 68.9 °F 87% 29.75 in 10.0 mi South 4.6 mph - N/A   Clear
11:33 PM 73.0 °F 68.9 °F 87% 29.74 in 7.0 mi South 3.5 mph - N/A   Clear
11:53 PM 73.9 °F 69.3 °F 85% 29.74 in 10.0 mi Calm Calm - N/A   Clear